Weather History for Red Wing, MN

Change the Weather History Date:

Sunday, October 23, 2011

  Actual Average Record
Temperature  
Mean Temperature 46 °F -  
Max Temperature 60 °F 53 °F 71 °F (2007)
Min Temperature 33 °F 37 °F 28 °F (1999)
Degree Days  
Heating Degree Days 18    
Moisture  
Dew Point 41 °F    
Average Humidity 76    
Maximum Humidity 100    
Minimum Humidity 59    
Precipitation  
Precipitation 0.11 in - - ()
Sea Level Pressure  
Sea Level Pressure 29.87 in    
Wind  
Wind Speed 3 mph (West)    
Max Wind Speed 10 mph    
Max Gust Speed -    
Visibility 10 miles    
Events Rain    
Averages and records for this station are not official NWS values.
T = Trace of Precipitation, MM = Missing Value Source: NWS Daily Summary

Daily Weather History Graph

Daily Weather History Graph

Search for Another Location

Airport:

Trip Planner

Search our weather history database for the weather conditions in past years. The results will help you decide how hot, cold, wet, or windy it might be!

Date:

Astronomy

Oct. 23, 2011 Rise Set
Actual Time 7:35 AM CDT 6:12 PM CDT
Civil Twilight 7:05 AM CDT 6:42 PM CDT
Nautical Twilight 6:31 AM CDT 7:16 PM CDT
Astronomical Twilight 5:57 AM CDT 7:50 PM CDT
Moon 3:34 AM CDT (10/23) 4:10 PM CDT (10/23)
Length of Visible Light 11h 36m
Length of Day
10h 37m
Waning Crescent, 14% of the Moon is Illuminated
Oct 23
Waning Crescent
Oct 26
New
Nov 2
First Quarter
Nov 10
Full
Nov 18
Last Quarter

Hourly Weather History & Observations

Time (CDT) Temp. Windchill Dew Point Humidity Pressure Visibility Wind Dir Wind Speed Gust Speed Precip Events Conditions
12:14 AM 33.8 °F - 30.2 °F 87% 29.99 in 10.0 mi Calm Calm - N/A   Clear
12:35 AM 33.8 °F 30.8 °F 30.2 °F 87% 29.98 in 10.0 mi East 3.5 mph - N/A   Scattered Clouds
12:55 AM 35.6 °F 32.8 °F 32.0 °F 87% 29.97 in 10.0 mi East 3.5 mph - N/A   Scattered Clouds
1:15 AM 33.8 °F - 30.2 °F 87% 29.97 in 10.0 mi Calm Calm - N/A   Scattered Clouds
1:34 AM 33.8 °F - 30.2 °F 87% 29.96 in 10.0 mi Calm Calm - N/A   Clear
1:55 AM 33.8 °F - 32.0 °F 93% 29.96 in 10.0 mi Calm Calm - N/A   Clear
2:15 AM 35.6 °F - 33.8 °F 93% 29.95 in 10.0 mi Calm Calm - N/A   Clear
2:35 AM 33.8 °F - 30.2 °F 87% 29.95 in 10.0 mi Calm Calm - N/A   Clear
2:55 AM 33.8 °F - 33.8 °F 100% 29.95 in 10.0 mi Calm Calm - N/A   Scattered Clouds
3:15 AM 39.2 °F - 37.4 °F 93% 29.94 in 10.0 mi Calm Calm - N/A   Mostly Cloudy
3:35 AM 39.2 °F - 37.4 °F 93% 29.94 in 10.0 mi Calm Calm - N/A   Overcast
3:55 AM 41.0 °F - 37.4 °F 87% 29.93 in 10.0 mi Calm Calm - N/A   Mostly Cloudy
4:14 AM 42.8 °F 41.1 °F 37.4 °F 81% 29.92 in 10.0 mi ESE 3.5 mph - N/A   Scattered Clouds
4:35 AM 44.6 °F - 37.4 °F 76% 29.93 in 10.0 mi Calm Calm - N/A Rain Light Rain
4:54 AM 44.6 °F 43.1 °F 37.4 °F 76% 29.93 in 10.0 mi ESE 3.5 mph - N/A Rain Rain
5:15 AM 44.6 °F - 39.2 °F 81% 29.93 in 7.0 mi Calm Calm - 0.01 in Rain Rain
5:34 AM 44.6 °F - 39.2 °F 81% 29.92 in 10.0 mi Calm Calm - 0.03 in Rain Rain
5:55 AM 44.6 °F - 39.2 °F 81% 29.92 in 10.0 mi Calm Calm - 0.05 in Rain Rain
6:15 AM 42.8 °F 39.3 °F 39.2 °F 87% 29.92 in 7.0 mi SSE 5.8 mph - 0.03 in Rain Rain
6:34 AM 42.8 °F 38.6 °F 39.2 °F 87% 29.90 in 10.0 mi SE 6.9 mph - 0.06 in Rain Light Rain
6:55 AM 44.6 °F 40.2 °F 39.2 °F 81% 29.89 in 10.0 mi South 8.1 mph - 0.06 in   Mostly Cloudy
7:15 AM 44.6 °F 40.7 °F 39.2 °F 81% 29.88 in 10.0 mi SSE 6.9 mph - N/A   Mostly Cloudy
7:35 AM 44.6 °F 41.4 °F 39.2 °F 81% 29.87 in 10.0 mi SE 5.8 mph - N/A   Mostly Cloudy
7:55 AM 46.4 °F 42.9 °F 39.2 °F 76% 29.87 in 10.0 mi SSE 6.9 mph - N/A   Mostly Cloudy
8:15 AM 46.4 °F - 39.2 °F 76% 29.88 in 10.0 mi Calm Calm - N/A   Mostly Cloudy
8:35 AM 46.4 °F - 39.2 °F 76% 29.88 in 10.0 mi Calm Calm - N/A   Mostly Cloudy
8:55 AM 46.4 °F - 39.2 °F 76% 29.88 in 10.0 mi Calm Calm - N/A   Scattered Clouds
9:15 AM 46.4 °F - 41.0 °F 81% 29.87 in 10.0 mi Calm Calm - N/A   Scattered Clouds
9:55 AM 50.0 °F - 42.8 °F 76% 29.85 in 10.0 mi Calm Calm - N/A   Clear
10:15 AM 51.8 °F - 42.8 °F 71% 29.84 in 10.0 mi Calm Calm - N/A   Clear
10:35 AM 53.6 °F - 44.6 °F 72% 29.84 in 10.0 mi WSW 4.6 mph - N/A   Clear
10:54 AM 53.6 °F - 44.6 °F 72% 29.83 in 10.0 mi SW 4.6 mph - N/A   Clear
11:15 AM 55.4 °F - 44.6 °F 67% 29.83 in 10.0 mi SSW 3.5 mph - N/A   Clear
11:35 AM 55.4 °F - 46.4 °F 72% 29.82 in 10.0 mi SSW 3.5 mph - N/A   Clear
11:55 AM 55.4 °F - 46.4 °F 72% 29.82 in 10.0 mi SW 5.8 mph - N/A   Clear
12:15 PM 57.2 °F - 46.4 °F 67% 29.81 in 10.0 mi SW 5.8 mph - N/A   Clear
12:35 PM 60.8 °F - 46.4 °F 59% 29.80 in 10.0 mi SW 9.2 mph - N/A   Clear
12:54 PM 60.8 °F - 48.2 °F 63% 29.79 in 10.0 mi SW 9.2 mph - N/A   Clear
1:15 PM 60.8 °F - 46.4 °F 59% 29.79 in 10.0 mi WSW 9.2 mph - N/A   Clear
1:35 PM 60.8 °F - 46.4 °F 59% 29.79 in 10.0 mi West 10.4 mph - N/A   Clear
1:55 PM 60.8 °F - 46.4 °F 59% 29.79 in 10.0 mi West 6.9 mph - N/A   Scattered Clouds
2:14 PM 60.8 °F - 48.2 °F 63% 29.78 in 10.0 mi WNW 5.8 mph - N/A   Drizzle
2:35 PM 60.8 °F - 46.4 °F 59% 29.78 in 10.0 mi West 9.2 mph - N/A   Scattered Clouds
2:54 PM 60.8 °F - 46.4 °F 59% 29.79 in 10.0 mi WNW 8.1 mph - N/A   Mostly Cloudy
3:15 PM 59.0 °F - 46.4 °F 63% 29.78 in 10.0 mi WNW 10.4 mph - N/A   Scattered Clouds
3:34 PM 59.0 °F - 46.4 °F 63% 29.78 in 10.0 mi WNW 6.9 mph - N/A   Mostly Cloudy
3:55 PM 59.0 °F - 46.4 °F 63% 29.78 in 10.0 mi WNW 9.2 mph - N/A   Mostly Cloudy
4:14 PM 59.0 °F - 46.4 °F 63% 29.79 in 10.0 mi NW 8.1 mph - N/A   Mostly Cloudy
4:35 PM 59.0 °F - 46.4 °F 63% 29.80 in 10.0 mi NW 6.9 mph - N/A   Scattered Clouds
4:54 PM 59.0 °F - 46.4 °F 63% 29.80 in 10.0 mi WNW 10.4 mph - N/A   Clear
5:15 PM 57.2 °F - 46.4 °F 67% 29.80 in 10.0 mi NW 8.1 mph - N/A   Clear
5:34 PM 55.4 °F - 46.4 °F 72% 29.82 in 10.0 mi NW 9.2 mph - N/A   Clear
5:55 PM 55.4 °F - 46.4 °F 72% 29.83 in 10.0 mi NNW 10.4 mph - N/A   Clear
6:35 PM 53.6 °F - 44.6 °F 72% 29.86 in 10.0 mi NNW 5.8 mph - N/A   Clear
6:55 PM 51.8 °F - 44.6 °F 76% 29.87 in 10.0 mi NW 8.1 mph - N/A   Clear
7:15 PM 51.8 °F - 44.6 °F 76% 29.88 in 10.0 mi NNW 5.8 mph - N/A   Clear
7:35 PM 50.0 °F - 44.6 °F 82% 29.89 in 10.0 mi NNW 5.8 mph - N/A   Clear
7:54 PM 50.0 °F - 44.6 °F 82% 29.89 in 10.0 mi NW 4.6 mph - N/A   Clear
8:15 PM 48.2 °F - 42.8 °F 82% 29.90 in 10.0 mi North 3.5 mph - N/A   Clear
8:34 PM 46.4 °F 45.2 °F 42.8 °F 87% 29.90 in 10.0 mi NW 3.5 mph - N/A   Clear
8:55 PM 46.4 °F 44.3 °F 42.8 °F 87% 29.91 in 10.0 mi NW 4.6 mph - N/A   Clear
9:14 PM 46.4 °F 45.2 °F 42.8 °F 87% 29.92 in 10.0 mi NW 3.5 mph - N/A   Clear
9:35 PM 44.6 °F - 41.0 °F 87% 29.93 in 10.0 mi Calm Calm - N/A   Clear
9:54 PM 42.8 °F - 41.0 °F 93% 29.93 in 10.0 mi Calm Calm - N/A   Clear
10:34 PM 41.0 °F - 39.2 °F 93% 29.93 in 10.0 mi Calm Calm - N/A   Clear
10:55 PM 39.2 °F - 37.4 °F 93% 29.94 in 7.0 mi Calm Calm - N/A   Clear
11:15 PM 37.4 °F - 37.4 °F 100% 29.94 in 7.0 mi Calm Calm - N/A   Clear
11:35 PM 37.4 °F 34.9 °F 37.4 °F 100% 29.94 in 7.0 mi NNW 3.5 mph - N/A   Clear